Overview Statistics Trail Chart Weather Telemetry Raw packets
 

This is the latest recevied weather packets stored in our database for station/object WA6ODQ-13. If no packets are shown the sender has not sent any weather packets the latest 10 day(s).

<< 103 104 105 106 107 108 109 >>
Time Temp. Humidity Pressure Rain* Wind** Luminosity Snow
1787888080 26.67° C 38% 1010.6 hPa 0 mm - 0 W/m² -
1787887777 26.67° C 38% 1010.7 hPa 0 mm - 0 W/m² -
1787887472 26.67° C 39% 1010.6 hPa 0 mm - 0 W/m² -
1787887171 26.67° C 40% 1010.7 hPa 0 mm - 0 W/m² -
1787886867 26.67° C 41% 1010.7 hPa 0 mm - 0 W/m² -
1787886567 26.67° C 41% 1010.4 hPa 0 mm - 0 W/m² -
1787886262 26.67° C 42% 1010.3 hPa 0 mm - 0 W/m² -
1787885961 26.67° C 42% 1010.5 hPa 0 mm - 0 W/m² -
1787885660 26.67° C 43% 1010.5 hPa 0 mm - 1 W/m² -
1787885354 27.22° C 42% 1010.2 hPa 0 mm - 2 W/m² -
1787885048 27.78° C 41% 1010.2 hPa 0 mm - 3 W/m² -
1787884743 28.33° C 38% 1010.5 hPa 0 mm - 4 W/m² -
1787884439 28.89° C 38% 1010.5 hPa 0 mm - 6 W/m² -
1787884135 28.33° C 38% 1010.6 hPa 0 mm - 9 W/m² -
1787883829 28.89° C 38% 1010.8 hPa 0 mm - 12 W/m² -
1787883525 28.89° C 37% 1010.5 hPa 0 mm - 16 W/m² -
1787883218 29.44° C 37% 1010.8 hPa 0 mm - 20 W/m² -
1787882913 29.44° C 36% 1010.9 hPa 0 mm - 23 W/m² -
1787882610 29.44° C 37% 1010.9 hPa 0 mm - 26 W/m² -
1787882306 29.44° C 38% 1011.1 hPa 0 mm - 32 W/m² -
1787882000 29.44° C 37% 1011.1 hPa 0 mm - 40 W/m² -
1787881695 29.44° C 38% 1011.2 hPa 0 mm - 50 W/m² -
1787881391 29.44° C 39% 1011.3 hPa 0 mm - 51 W/m² -
1787881086 29.44° C 39% 1011.3 hPa 0 mm - 54 W/m² -
1787880781 29.44° C 40% 1011.1 hPa 0 mm - 58 W/m² -

* Rain latest hour (hover to see other rain measurements)
** Current wind speed in m/s (hover to see current wind gust speed)